Location: Johnson City
(36.3130°N, 82.3540°W)
Time: 05:51:37
(UTC-05:00)

N. Korean satellite - Pass Details

Date: 02 December 2021
Orbit: 447 x 490 km, 97.3° (Epoch: 26 January)

Event Time Altitude Azimuth Distance (km) Brightness Sun altitude
Rises 05:32:00 0° 14° (NNE) 2,458 10.2 -22.0°
Reaches altitude 10° 05:34:03 10° 18° (NNE) 1,579 9.2 -21.5°
Maximum altitude 05:37:25 64° 100° (E) 498 6.8 -20.9°
Drops below altitude 10° 05:40:44 10° 183° (S) 1,564 9.2 -20.2°
Sets 05:42:45 0° 186° (S) 2,433 10.2 -19.8°
